Total_Precipitation_Accumulation
0.75 0.93 1.19 1.53 1.75 1.86 2.08 2.21 2.40 2.57 2.61 2.51 2.20 1.84 1.61 1.54 1.49 1.34 1.21 1.13 1.08 1.06 1.04 1.01 0.92 0.83 0.76 0.68 0.64 0.62 0.63 0.67 0.71 0.69 0.55 0.42 0.35 0.30 0.25 0.22 0.20 0.17 0.15
0.58 0.74 1.04 1.24 1.45 1.63 1.78 2.02 2.08 2.30 2.36 2.29 2.24 2.06 1.95 1.84 1.73 1.63 1.43 1.30 1.25 1.16 1.08 1.02 1.00 0.92 0.85 0.84 0.86 0.83 0.76 0.72 0.76 0.83 0.79 0.63 0.49 0.36 0.27 0.25 0.24 0.23 0.23
0.47 0.60 0.83 1.04 1.15 1.36 1.62 1.74 1.80 2.02 2.23 2.31 2.43 2.51 2.45 2.14 1.87 1.70 1.61 1.49 1.42 1.33 1.21 1.11 1.08 1.06 0.96 0.89 0.94 0.99 0.99 0.98 0.96 0.95 1.08 0.97 0.69 0.50 0.35 0.29 0.27 0.27 0.29
0.42 0.49 0.57 0.76 0.89 1.03 1.36 1.67 1.80 1.93 2.12 2.38 2.39 2.33 2.20 1.98 1.72 1.70 1.75 1.71 1.61 1.51 1.36 1.27 1.21 1.18 1.14 1.07 1.08 1.11 1.16 1.21 1.19 1.14 1.08 1.04 0.90 0.83 0.61 0.38 0.31 0.29 0.27
0.47 0.46 0.49 0.61 0.75 0.86 1.11 1.39 1.64 1.87 2.07 2.19 2.24 2.28 2.14 1.96 1.91 1.83 1.79 1.70 1.59 1.54 1.46 1.40 1.38 1.33 1.31 1.30 1.34 1.33 1.32 1.32 1.31 1.26 1.22 1.21 1.11 0.99 0.93 0.68 0.47 0.43 0.38
0.48 0.45 0.46 0.55 0.68 0.75 0.90 1.14 1.38 1.53 1.74 1.95 2.04 2.09 2.09 2.08 2.03 1.85 1.76 1.75 1.72 1.64 1.54 1.52 1.52 1.52 1.49 1.46 1.44 1.46 1.50 1.49 1.45 1.43 1.35 1.29 1.24 1.11 1.12 1.01 0.76 0.68 0.59
0.40 0.40 0.43 0.50 0.60 0.69 0.79 0.90 1.05 1.17 1.31 1.50 1.66 1.75 1.87 1.98 1.91 1.80 1.66 1.64 1.61 1.56 1.51 1.48 1.52 1.58 1.56 1.56 1.58 1.58 1.54 1.56 1.58 1.56 1.51 1.43 1.33 1.25 1.30 1.33 1.13 0.94 0.77
0.40 0.38 0.38 0.43 0.52 0.58 0.66 0.74 0.83 0.92 1.07 1.19 1.31 1.47 1.61 1.80 1.80 1.77 1.61 1.48 1.43 1.43 1.49 1.43 1.37 1.40 1.47 1.51 1.52 1.52 1.50 1.49 1.48 1.45 1.45 1.45 1.36 1.35 1.39 1.48 1.59 1.50 1.19
0.40 0.38 0.37 0.38 0.46 0.50 0.54 0.64 0.76 0.82 0.91 1.03 1.16 1.27 1.37 1.47 1.54 1.61 1.63 1.48 1.40 1.39 1.39 1.34 1.27 1.20 1.21 1.29 1.38 1.39 1.38 1.39 1.39 1.37 1.37 1.40 1.37 1.38 1.43 1.53 1.73 1.93 1.75
0.40 0.37 0.38 0.42 0.46 0.47 0.48 0.56 0.71 0.75 0.78 0.86 0.96 1.05 1.15 1.29 1.38 1.41 1.42 1.37 1.34 1.35 1.33 1.26 1.17 1.11 1.08 1.07 1.14 1.17 1.16 1.20 1.20 1.23 1.25 1.25 1.24 1.30 1.36 1.43 1.52 1.70 1.80
0.41 0.40 0.44 0.50 0.53 0.48 0.50 0.56 0.63 0.74 0.79 0.80 0.85 0.90 0.91 0.99 1.14 1.24 1.27 1.27 1.25 1.24 1.23 1.19 1.14 1.09 1.02 0.97 0.96 0.95 0.98 1.05 1.06 1.09 1.11 1.09 1.07 1.13 1.17 1.24 1.31 1.40 1.52
0.37 0.42 0.49 0.52 0.53 0.54 0.57 0.60 0.62 0.68 0.79 0.80 0.81 0.85 0.87 0.87 0.95 1.05 1.15 1.21 1.28 1.21 1.19 1.16 1.11 1.06 1.01 0.97 0.94 0.89 0.89 0.93 0.96 0.99 1.04 1.03 1.01 1.02 1.06 1.12 1.13 1.14 1.18
0.35 0.36 0.43 0.49 0.50 0.54 0.63 0.67 0.70 0.71 0.71 0.74 0.74 0.75 0.75 0.76 0.82 0.88 0.98 1.04 1.14 1.14 1.11 1.12 1.07 0.98 0.95 0.94 0.91 0.87 0.86 0.88 0.87 0.89 0.97 1.02 1.05 1.06 1.06 1.08 1.07 1.06 1.09
0.33 0.35 0.40 0.44 0.47 0.52 0.57 0.57 0.65 0.67 0.67 0.66 0.71 0.72 0.68 0.68 0.75 0.84 0.88 0.92 0.97 1.04 1.03 1.05 1.10 1.09 1.02 0.99 0.97 0.92 0.89 0.90 0.89 0.89 0.93 0.98 1.01 0.99 0.96 0.99 0.97 1.00 1.06
0.30 0.34 0.37 0.40 0.43 0.41 0.41 0.44 0.50 0.57 0.59 0.60 0.67 0.71 0.72 0.76 0.86 0.90 0.86 0.86 0.88 0.94 0.98 0.98 1.04 1.08 1.07 1.05 1.04 1.01 1.00 1.02 1.03 1.00 0.96 0.95 0.99 0.98 0.95 0.95 0.96 0.99 1.06
0.24 0.25 0.30 0.36 0.39 0.37 0.37 0.37 0.40 0.45 0.46 0.48 0.53 0.60 0.67 0.76 0.86 0.93 0.91 0.87 0.85 0.90 0.97 0.96 1.01 1.09 1.11 1.24 1.22 1.12 1.09 1.08 1.05 0.99 0.91 0.88 0.91 0.91 0.94 0.96 0.96 1.02 1.14
0.18 0.19 0.22 0.28 0.29 0.29 0.31 0.34 0.35 0.39 0.42 0.41 0.43 0.49 0.62 0.72 0.78 0.84 0.88 0.89 0.90 0.99 1.08 1.09 1.10 1.17 1.28 1.34 1.17 1.10 1.02 1.00 0.96 0.89 0.84 0.80 0.77 0.82 0.76 0.81 0.89 0.93 1.04
0.14 0.15 0.18 0.21 0.21 0.22 0.24 0.26 0.27 0.33 0.41 0.45 0.47 0.50 0.57 0.67 0.78 0.82 0.88 0.93 0.96 1.04 1.13 1.18 1.20 1.22 1.25 1.27 1.16 1.06 0.91 0.86 0.83 0.78 0.73 0.72 0.71 0.72 0.78 0.85 0.91 0.85 0.81
0.14 0.14 0.16 0.17 0.16 0.18 0.21 0.21 0.22 0.27 0.36 0.42 0.47 0.48 0.52 0.62 0.74 0.84 0.91 0.96 1.00 1.05 1.10 1.10 1.07 1.04 1.06 1.06 0.98 0.96 0.86 0.84 0.77 0.72 0.71 0.71 0.68 0.77 0.91 0.96 0.97 0.84 0.71
0.17 0.17 0.16 0.16 0.16 0.18 0.20 0.23 0.25 0.29 0.36 0.39 0.45 0.46 0.50 0.57 0.68 0.78 0.87 0.92 0.93 0.94 0.93 0.92 0.88 0.85 0.87 0.93 0.86 0.85 0.83 0.83 0.77 0.72 0.71 0.78 0.76 0.86 0.97 0.92 0.92 0.86 0.71
0.17 0.22 0.24 0.25 0.26 0.28 0.29 0.30 0.31 0.34 0.38 0.40 0.45 0.48 0.51 0.56 0.64 0.70 0.73 0.75 0.74 0.72 0.71 0.70 0.67 0.67 0.70 0.76 0.74 0.75 0.77 0.78 0.80 0.78 0.72 0.71 0.87 0.96 0.99 0.90 0.75 0.77 0.84
0.17 0.22 0.27 0.29 0.31 0.33 0.35 0.36 0.38 0.39 0.40 0.42 0.46 0.50 0.52 0.52 0.52 0.55 0.58 0.57 0.56 0.56 0.55 0.55 0.56 0.58 0.61 0.65 0.70 0.73 0.79 0.83 0.77 0.73 0.67 0.70 0.86 0.86 0.82 0.76 0.77 0.85 0.80
0.16 0.19 0.23 0.24 0.25 0.30 0.36 0.39 0.40 0.39 0.38 0.41 0.42 0.43 0.43 0.42 0.44 0.44 0.45 0.47 0.49 0.50 0.52 0.52 0.52 0.54 0.56 0.59 0.68 0.69 0.76 0.81 0.74 0.70 0.75 0.79 0.79 0.73 0.69 0.72 0.76 0.73 0.69
0.13 0.14 0.16 0.18 0.19 0.21 0.25 0.30 0.32 0.31 0.29 0.32 0.31 0.31 0.32 0.33 0.34 0.36 0.37 0.40 0.43 0.43 0.45 0.47 0.46 0.47 0.48 0.49 0.53 0.61 0.66 0.71 0.70 0.73 0.75 0.72 0.69 0.67 0.68 0.73 0.70 0.64 0.69
0.14 0.12 0.11 0.12 0.13 0.14 0.16 0.20 0.22 0.23 0.23 0.24 0.23 0.23 0.24 0.30 0.33 0.34 0.35 0.38 0.40 0.45 0.46 0.44 0.43 0.46 0.47 0.49 0.61 0.66 0.63 0.69 0.72 0.71 0.62 0.58 0.60 0.62 0.61 0.61 0.64 0.66 0.70
0.15 0.12 0.11 0.12 0.12 0.13 0.13 0.14 0.17 0.21 0.22 0.22 0.22 0.22 0.21 0.25 0.32 0.36 0.36 0.40 0.43 0.48 0.52 0.51 0.47 0.44 0.48 0.54 0.59 0.62 0.68 0.73 0.74 0.66 0.58 0.56 0.56 0.57 0.59 0.59 0.61 0.65 0.70